Lille, France

7:54 PM CET on February 27, 2017 (GMT +0100)
Lesquin

Weather History for LFQQ - January, 2013

Change the Weather History Date:

Tuesday, January 22, 2013

  Actual Average Record
Temperature  
Mean Temperature 30 °F -  
Max Temperature 36 °F 43 °F 53 °F (1997)
Min Temperature 24 °F 34 °F 21 °F (2017)
Degree Days  
Heating Degree Days 35    
Moisture  
Dew Point 26 °F    
Average Humidity 85    
Maximum Humidity 100    
Minimum Humidity 65    
Precipitation  
Precipitation 0.00 in - - ()
Sea Level Pressure  
Sea Level Pressure 29.62 in    
Wind  
Wind Speed 4 mph ()    
Max Wind Speed 10 mph    
Max Gust Speed -    
Visibility 2.5 miles    
Events      
Averages and records for this station are not official NWS values.
T = Trace of Precipitation, MM = Missing Value Source: Averaged Metar Reports

Daily Weather History Graph

Daily Weather History Graph

Search for Another Location

Airport or City:

Trip Planner

Search our weather history database for the weather conditions in past years. The results will help you decide how hot, cold, wet, or windy it might be!

Date:

Astronomy

Jan. 22, 2013 Rise Set
Actual Time 8:35 AM CET 5:23 PM CET
Civil Twilight 7:59 AM CET 5:59 PM CET
Nautical Twilight 7:18 AM CET 6:40 PM CET
Astronomical Twilight 6:40 AM CET 7:18 PM CET
Moon 1:30 PM CET (1/22) 4:47 AM CET (1/22)
Length of Visible Light 10h 00m
Length of Day
8h 47m
Waxing Gibbous, 80% of the Moon is Illuminated
Jan 22
Waxing Gibbous
Jan 27
Full
Feb 3
Last Quarter
Feb 10
New
Feb 17
First Quarter

Hourly Weather History & Observations

Time (CET) Temp. Windchill Dew Point Humidity Pressure Visibility Wind Dir Wind Speed Gust Speed Precip Events Conditions
12:00 AM 30.2 °F - 28.4 °F 93% 29.53 in 1.7 mi Calm Calm - N/A   Mist
1:00 AM 30 °F - 29 °F 92% 29.58 in 1 mi SW 1.2 mph - -   Mist
1:00 AM 30.2 °F - 28.4 °F 93% 29.56 in 1.2 mi Variable 1.2 mph - N/A   Mist
1:30 AM 30.2 °F - 28.4 °F 93% 29.56 in - SW 2.3 mph - N/A   Mist
2:00 AM 30.2 °F - 28.4 °F 93% 29.56 in 1.4 mi SSE 2.3 mph - N/A   Mist
2:30 AM 30.2 °F - 28.4 °F 93% 29.56 in 1.5 mi ESE 2.3 mph - N/A   Mist
3:00 AM 30.2 °F - 28.4 °F 93% 29.56 in 1.6 mi ESE 2.3 mph - N/A   Mist
3:30 AM 30.2 °F - 28.4 °F 93% 29.56 in 1.5 mi Variable 2.3 mph - N/A   Mist
4:00 AM 28.4 °F 24.6 °F 28.4 °F 100% 29.56 in 1.6 mi SW 3.5 mph - N/A   Mist
5:00 AM 28.4 °F 24.6 °F 26.6 °F 93% 29.59 in 1.2 mi South 3.5 mph - N/A   Mist
5:30 AM 28.4 °F 24.6 °F 26.6 °F 93% 29.59 in 1.2 mi SSE 3.5 mph - N/A   Mist
6:00 AM 28.4 °F 24.6 °F 26.6 °F 93% 29.59 in 1.2 mi South 3.5 mph - N/A   Mist
6:30 AM 28.4 °F 23.3 °F 26.6 °F 93% 29.59 in 1.2 mi South 4.6 mph - N/A   Mist
7:00 AM 28.4 °F 23.3 °F 26.6 °F 93% 29.59 in 1.6 mi SSE 4.6 mph - N/A   Mist
7:30 AM 28.4 °F 22.2 °F 26.6 °F 93% 29.59 in 1.6 mi SE 5.8 mph - N/A   Mist
8:00 AM 28.4 °F 23.3 °F 26.6 °F 93% 29.59 in 1.7 mi SSE 4.6 mph - N/A   Mist
8:30 AM 26.6 °F 21.2 °F 24.8 °F 93% 29.59 in 1.7 mi SE 4.6 mph - N/A   Mist
9:00 AM 26.6 °F 22.6 °F 24.8 °F 93% 29.62 in 1.6 mi SSE 3.5 mph - N/A   Mist
9:30 AM 26.6 °F 22.6 °F 24.8 °F 93% 29.62 in 0.7 mi SE 3.5 mph - N/A   Mist
10:00 AM 26.6 °F 21.2 °F 24.8 °F 93% 29.62 in 0.7 mi SE 4.6 mph - N/A   Mist
10:30 AM 26.6 °F 21.2 °F 26.6 °F 100% 29.62 in 0.7 mi SSE 4.6 mph - N/A   Mist
11:00 AM 28.4 °F 22.2 °F 24.8 °F 86% 29.62 in 1.6 mi SSE 5.8 mph - N/A   Mist
11:30 AM 30.2 °F 24.3 °F 26.6 °F 86% 29.62 in 2.2 mi SSE 5.8 mph - N/A   Mist
12:00 PM 30.2 °F 23.4 °F 24.8 °F 80% 29.65 in 2.2 mi SE 6.9 mph - N/A   Mist
12:30 PM 32.0 °F 28.7 °F 26.6 °F 80% 29.65 in 2.5 mi SSE 3.5 mph - N/A   Mist
1:00 PM 32 °F - 26 °F 69% 29.66 in 2 mi SSE 3.5 mph - -   Mist
1:00 PM 32.0 °F 28.7 °F 26.6 °F 80% 29.65 in 2.5 mi SSE 3.5 mph - N/A   Mist
1:30 PM 33.8 °F 27.0 °F 26.6 °F 75% 29.62 in 2.5 mi SE 8.1 mph - N/A   Mist
2:00 PM 35.6 °F 29.2 °F 26.6 °F 70% 29.62 in 2.5 mi SSE 8.1 mph - N/A   Mist
2:30 PM 35.6 °F 29.9 °F 26.6 °F 70% 29.62 in 3.1 mi SE 6.9 mph - N/A   Mist
3:00 PM 35.6 °F 29.2 °F 26.6 °F 70% 29.62 in 3.7 mi ESE 8.1 mph - N/A   Unknown
3:30 PM 35.6 °F 28.6 °F 26.6 °F 70% 29.62 in 5.0 mi ESE 9.2 mph - N/A   Unknown
4:00 PM 35.6 °F 28.6 °F 24.8 °F 65% 29.62 in 5.0 mi ESE 9.2 mph - N/A   Unknown
4:30 PM 33.8 °F 25.8 °F 24.8 °F 70% 29.62 in 5.0 mi East 10.4 mph - N/A   Unknown
5:00 PM 32.0 °F 24.2 °F 24.8 °F 75% 29.62 in 5.6 mi East 9.2 mph - N/A   Unknown
5:30 PM 32.0 °F 24.2 °F 24.8 °F 75% 29.65 in 5.6 mi East 9.2 mph - N/A   Unknown
6:00 PM 30.2 °F 23.4 °F 23.0 °F 75% 29.65 in 5.6 mi East 6.9 mph - N/A   Unknown
7:00 PM 28 °F - 23 °F 73% 29.68 in 4 mi East 4.6 mph - -   Mostly Cloudy
7:00 PM 28.4 °F 23.3 °F 23.0 °F 80% 29.65 in 4.3 mi ESE 4.6 mph - N/A   Unknown
7:30 PM 28.4 °F 19.7 °F 24.8 °F 86% 29.65 in 3.7 mi East 9.2 mph - N/A   Unknown
8:00 PM 26.6 °F 21.2 °F 23.0 °F 86% 29.65 in 3.7 mi East 4.6 mph - N/A   Unknown
8:30 PM 24.8 °F - 21.2 °F 86% 29.68 in 2.5 mi Calm Calm - N/A   Mist
9:00 PM 28.4 °F 21.2 °F 24.8 °F 86% 29.68 in 3.1 mi East 6.9 mph - N/A   Mist
9:30 PM 28.4 °F 19.7 °F 24.8 °F 86% 29.68 in 3.1 mi East 9.2 mph - N/A   Mist
10:00 PM 28.4 °F 19.7 °F 24.8 °F 86% 29.68 in 2.8 mi East 9.2 mph - N/A   Mist
10:30 PM 28.4 °F 19.7 °F 24.8 °F 86% 29.68 in - East 9.2 mph - N/A   Mist
11:00 PM 28.4 °F 20.4 °F 24.8 °F 86% 29.68 in - East 8.1 mph - N/A   Mist
11:30 PM 28.4 °F 19.1 °F 24.8 °F 86% 29.68 in - East 10.4 mph - N/A   Mist